Total_Precipitation_Accumulation
0.35 0.42 0.41 0.43 0.48 0.48 0.54 0.52 0.42 0.33 0.30 0.23 0.14 0.07 0.06 0.03 0.03 0.02 0.01 0.02 0.03 0.03 0.02 0.01 0.01 0.01 0.01 0.01 0.01 0.01 0.01 0.01 0.01 0.00 0.00 0.00 0.01 0.01
0.27 0.29 0.31 0.30 0.31 0.33 0.41 0.52 0.47 0.34 0.28 0.27 0.21 0.16 0.15 0.10 0.11 0.07 0.04 0.03 0.03 0.03 0.02 0.01 0.01 0.01 0.00 0.00 0.00 0.00 0.00 0.00 0.00 0.00 0.00 0.00 0.00 0.01
0.15 0.17 0.21 0.28 0.32 0.34 0.37 0.45 0.52 0.45 0.33 0.34 0.27 0.26 0.27 0.22 0.22 0.15 0.08 0.05 0.04 0.04 0.03 0.02 0.01 0.01 0.01 0.00 0.00 0.00 0.00 0.00 0.00 0.00 0.00 0.00 0.00 0.01
0.10 0.11 0.15 0.21 0.26 0.31 0.34 0.39 0.45 0.52 0.47 0.46 0.45 0.36 0.33 0.32 0.32 0.29 0.18 0.12 0.10 0.15 0.17 0.09 0.04 0.03 0.02 0.02 0.01 0.00 0.00 0.00 0.00 0.00 0.00 0.00 0.00 0.00
0.15 0.13 0.15 0.17 0.20 0.25 0.33 0.41 0.46 0.51 0.51 0.46 0.51 0.53 0.43 0.40 0.32 0.26 0.19 0.19 0.19 0.18 0.25 0.23 0.18 0.13 0.10 0.09 0.07 0.05 0.03 0.02 0.02 0.02 0.01 0.01 0.00 0.00
0.21 0.17 0.15 0.14 0.18 0.29 0.40 0.48 0.51 0.51 0.53 0.53 0.55 0.58 0.51 0.41 0.30 0.25 0.27 0.27 0.25 0.20 0.16 0.19 0.21 0.18 0.15 0.14 0.13 0.11 0.10 0.07 0.05 0.04 0.03 0.02 0.01 0.01
0.19 0.16 0.16 0.14 0.14 0.23 0.34 0.51 0.55 0.56 0.57 0.58 0.58 0.53 0.46 0.36 0.30 0.26 0.25 0.31 0.27 0.21 0.17 0.15 0.16 0.17 0.19 0.20 0.20 0.19 0.16 0.14 0.11 0.09 0.07 0.06 0.04 0.03
0.17 0.15 0.16 0.13 0.10 0.12 0.14 0.27 0.39 0.48 0.55 0.54 0.55 0.51 0.47 0.41 0.37 0.29 0.22 0.20 0.22 0.23 0.20 0.23 0.22 0.24 0.29 0.29 0.34 0.38 0.34 0.28 0.23 0.18 0.15 0.12 0.11 0.10
0.19 0.19 0.19 0.16 0.14 0.15 0.14 0.18 0.20 0.23 0.28 0.34 0.40 0.42 0.44 0.41 0.36 0.29 0.22 0.18 0.21 0.21 0.16 0.19 0.21 0.22 0.26 0.25 0.24 0.25 0.26 0.24 0.21 0.19 0.17 0.16 0.14 0.12
0.25 0.20 0.21 0.21 0.23 0.28 0.22 0.22 0.22 0.23 0.22 0.19 0.23 0.28 0.29 0.32 0.32 0.34 0.31 0.22 0.15 0.12 0.09 0.10 0.13 0.14 0.13 0.14 0.14 0.13 0.13 0.14 0.14 0.13 0.13 0.12 0.11 0.11
0.29 0.26 0.27 0.30 0.42 0.40 0.29 0.27 0.28 0.28 0.27 0.28 0.32 0.32 0.32 0.34 0.37 0.40 0.36 0.29 0.24 0.22 0.20 0.15 0.12 0.11 0.08 0.08 0.08 0.08 0.07 0.07 0.07 0.07 0.07 0.08 0.09 0.09
0.35 0.33 0.43 0.39 0.43 0.36 0.26 0.30 0.34 0.34 0.33 0.37 0.36 0.35 0.31 0.32 0.37 0.38 0.43 0.44 0.40 0.34 0.28 0.21 0.19 0.18 0.16 0.12 0.08 0.05 0.04 0.05 0.05 0.05 0.06 0.06 0.07 0.07
0.30 0.29 0.26 0.29 0.25 0.24 0.23 0.25 0.36 0.32 0.32 0.36 0.29 0.25 0.22 0.23 0.26 0.29 0.36 0.39 0.41 0.41 0.36 0.28 0.24 0.23 0.19 0.16 0.12 0.08 0.05 0.04 0.04 0.04 0.05 0.06 0.06 0.05
0.14 0.16 0.16 0.17 0.17 0.20 0.18 0.24 0.27 0.21 0.25 0.28 0.23 0.19 0.19 0.18 0.17 0.18 0.21 0.26 0.31 0.36 0.36 0.27 0.22 0.19 0.17 0.14 0.12 0.09 0.06 0.05 0.04 0.04 0.04 0.05 0.04 0.04
0.06 0.09 0.13 0.18 0.15 0.15 0.17 0.20 0.18 0.18 0.25 0.25 0.23 0.19 0.14 0.13 0.10 0.11 0.13 0.15 0.18 0.19 0.22 0.27 0.28 0.24 0.18 0.13 0.09 0.07 0.07 0.06 0.05 0.04 0.05 0.05 0.04 0.03
0.06 0.12 0.17 0.21 0.17 0.18 0.17 0.17 0.19 0.22 0.24 0.23 0.21 0.16 0.10 0.09 0.10 0.10 0.11 0.10 0.11 0.12 0.14 0.18 0.31 0.41 0.41 0.35 0.28 0.22 0.19 0.16 0.14 0.13 0.11 0.08 0.07 0.07
0.12 0.25 0.33 0.30 0.25 0.21 0.20 0.22 0.25 0.23 0.22 0.21 0.20 0.15 0.11 0.10 0.08 0.06 0.06 0.07 0.09 0.10 0.11 0.09 0.09 0.14 0.23 0.29 0.33 0.34 0.34 0.33 0.31 0.30 0.25 0.17 0.13 0.14
0.26 0.41 0.48 0.52 0.48 0.41 0.33 0.31 0.31 0.29 0.26 0.24 0.22 0.18 0.14 0.12 0.10 0.08 0.07 0.07 0.08 0.09 0.09 0.07 0.04 0.05 0.08 0.12 0.13 0.18 0.22 0.22 0.24 0.27 0.27 0.21 0.16 0.17
0.60 0.64 0.64 0.65 0.64 0.53 0.41 0.33 0.26 0.23 0.22 0.20 0.17 0.14 0.10 0.08 0.06 0.05 0.05 0.05 0.05 0.05 0.04 0.04 0.04 0.06 0.08 0.10 0.11 0.09 0.13 0.16 0.18 0.19 0.19 0.18 0.15 0.15
0.71 0.72 0.78 0.74 0.68 0.50 0.34 0.24 0.16 0.13 0.12 0.10 0.07 0.05 0.03 0.03 0.02 0.02 0.03 0.02 0.02 0.02 0.03 0.05 0.06 0.07 0.09 0.11 0.11 0.09 0.10 0.15 0.18 0.18 0.17 0.16 0.14 0.14
0.38 0.44 0.47 0.44 0.38 0.27 0.16 0.11 0.05 0.02 0.02 0.01 0.01 0.01 0.01 0.01 0.02 0.02 0.03 0.02 0.03 0.04 0.04 0.04 0.05 0.05 0.05 0.08 0.10 0.09 0.09 0.12 0.13 0.12 0.13 0.15 0.16 0.16
0.12 0.13 0.12 0.11 0.09 0.06 0.03 0.03 0.03 0.01 0.01 0.00 0.01 0.01 0.02 0.02 0.02 0.03 0.04 0.04 0.04 0.04 0.04 0.04 0.03 0.04 0.05 0.07 0.09 0.08 0.06 0.05 0.08 0.13 0.14 0.14 0.14 0.15
0.03 0.04 0.04 0.03 0.02 0.01 0.01 0.01 0.01 0.01 0.00 0.00 0.01 0.01 0.02 0.03 0.03 0.03 0.03 0.03 0.04 0.04 0.03 0.03 0.03 0.03 0.04 0.06 0.07 0.07 0.06 0.05 0.06 0.09 0.17 0.26 0.23 0.16